iso_date,epoch_date,Year,Hour,Min,DOY,POS_DOY,Lat,Lon,BP,Ts,Ta,has_bp,has_ts,has_ta,BuoyID,Buoy_Type,Buoy_Owner,Logistics,Hemisphere
2010-06-18T17:02:24Z,1276880544,2010,17,2,169.71,166.866,73.4184,-157.8406,1023.3,-0.2,-999.0,yes,yes,no,300234010429060,SVP-BC,unknown,APLIS,North
2011-03-23T00:00:00Z,1300838400,2011,0,0,82.0,82.0,73.0106,-146.7936,996.9,-14.1,-999.0,yes,yes,no,300234010429060,SVP-BC,unknown,APLIS,North
2011-03-23T01:00:28Z,1300842029,2011,1,0,82.042,82.042,73.0118,-146.7982,997.1,-14.0,-999.0,yes,yes,no,300234010429060,SVP-BC,unknown,APLIS,North
2011-03-23T01:59:31Z,1300845571,2011,2,0,82.083,82.083,73.0128,-146.8014,996.8,-14.4,-999.0,yes,yes,no,300234010429060,SVP-BC,unknown,APLIS,North
2011-03-23T03:00:00Z,1300849200,2011,3,0,82.125,82.125,73.0138,-146.8036,996.6,-14.6,-999.0,yes,yes,no,300234010429060,SVP-BC,unknown,APLIS,North
2011-03-23T04:00:28Z,1300852829,2011,4,0,82.167,82.167,73.0148,-146.805,996.5,-15.6,-999.0,yes,yes,no,300234010429060,SVP-BC,unknown,APLIS,North
2011-03-23T04:59:31Z,1300856371,2011,5,0,82.208,82.208,73.0156,-146.8058,996.4,-16.3,-999.0,yes,yes,no,300234010429060,SVP-BC,unknown,APLIS,North
2011-03-23T06:00:00Z,1300860000,2011,6,0,82.25,82.25,73.0164,-146.8062,996.3,-17.0,-999.0,yes,yes,no,300234010429060,SVP-BC,unknown,APLIS,North
2011-03-23T07:00:28Z,1300863629,2011,7,0,82.292,82.292,73.0172,-146.8062,996.5,-18.0,-999.0,yes,yes,no,300234010429060,SVP-BC,unknown,APLIS,North
2011-03-23T07:59:31Z,1300867171,2011,8,0,82.333,82.333,73.018,-146.8058,996.6,-18.4,-999.0,yes,yes,no,300234010429060,SVP-BC,unknown,APLIS,North
2011-03-23T09:00:00Z,1300870800,2011,9,0,82.375,82.375,73.0188,-146.805,996.6,-17.9,-999.0,yes,yes,no,300234010429060,SVP-BC,unknown,APLIS,North
2011-03-23T10:00:28Z,1300874429,2011,10,0,82.417,82.417,73.0196,-146.8036,996.7,-17.8,-999.0,yes,yes,no,300234010429060,SVP-BC,unknown,APLIS,North
2011-03-23T10:59:31Z,1300877971,2011,11,0,82.458,82.458,73.0204,-146.8016,996.9,-17.7,-999.0,yes,yes,no,300234010429060,SVP-BC,unknown,APLIS,North
2011-03-23T12:00:00Z,1300881600,2011,12,0,82.5,82.5,73.0212,-146.799,997.0,-17.2,-999.0,yes,yes,no,300234010429060,SVP-BC,unknown,APLIS,North
2011-03-23T13:00:28Z,1300885229,2011,13,0,82.542,82.542,73.022,-146.795,997.7,-16.9,-999.0,yes,yes,no,300234010429060,SVP-BC,unknown,APLIS,North
2011-03-23T13:59:31Z,1300888771,2011,14,0,82.583,82.583,73.0226,-146.7898,998.1,-16.8,-999.0,yes,yes,no,300234010429060,SVP-BC,unknown,APLIS,North
2011-03-23T15:00:00Z,1300892400,2011,15,0,82.625,82.625,73.0228,-146.7844,998.8,-16.8,-999.0,yes,yes,no,300234010429060,SVP-BC,unknown,APLIS,North
2011-03-23T16:00:28Z,1300896029,2011,16,0,82.667,82.667,73.0228,-146.7786,999.2,-16.7,-999.0,yes,yes,no,300234010429060,SVP-BC,unknown,APLIS,North
2011-03-23T16:59:31Z,1300899571,2011,17,0,82.708,82.708,73.023,-146.7716,999.4,-16.8,-999.0,yes,yes,no,300234010429060,SVP-BC,unknown,APLIS,North
2011-03-23T18:00:00Z,1300903200,2011,18,0,82.75,82.75,73.0232,-146.7644,1000.3,-16.2,-999.0,yes,yes,no,300234010429060,SVP-BC,unknown,APLIS,North
2011-03-23T19:00:28Z,1300906829,2011,19,0,82.792,82.792,73.0236,-146.7556,1000.7,-15.5,-999.0,yes,yes,no,300234010429060,SVP-BC,unknown,APLIS,North
2011-03-23T19:59:31Z,1300910371,2011,20,0,82.833,82.833,73.0242,-146.7462,1001.4,-14.3,-999.0,yes,yes,no,300234010429060,SVP-BC,unknown,APLIS,North
2011-03-23T21:00:00Z,1300914000,2011,21,0,82.875,82.875,73.0248,-146.7356,1002.0,-12.8,-999.0,yes,yes,no,300234010429060,SVP-BC,unknown,APLIS,North
2011-03-23T22:00:28Z,1300917629,2011,22,0,82.917,82.917,73.0254,-146.7238,1002.9,-11.5,-999.0,yes,yes,no,300234010429060,SVP-BC,unknown,APLIS,North
2011-03-23T22:59:31Z,1300921171,2011,23,0,82.958,82.958,73.0262,-146.7114,1003.4,-10.5,-999.0,yes,yes,no,300234010429060,SVP-BC,unknown,APLIS,North
2011-03-24T00:00:00Z,1300924800,2011,0,0,83.0,83.0,73.0272,-146.6986,1003.9,-9.6,-999.0,yes,yes,no,300234010429060,SVP-BC,unknown,APLIS,North
2011-03-24T01:00:28Z,1300928429,2011,1,0,83.042,83.042,73.0282,-146.6848,1004.3,-8.6,-999.0,yes,yes,no,300234010429060,SVP-BC,unknown,APLIS,North
2011-03-24T01:59:31Z,1300931971,2011,2,0,83.083,83.083,73.0294,-146.6716,1004.7,-8.4,-999.0,yes,yes,no,300234010429060,SVP-BC,unknown,APLIS,North
2011-03-24T03:00:00Z,1300935600,2011,3,0,83.125,83.125,73.0308,-146.6594,1005.3,-8.3,-999.0,yes,yes,no,300234010429060,SVP-BC,unknown,APLIS,North
2011-03-24T04:00:28Z,1300939229,2011,4,0,83.167,83.167,73.0324,-146.6492,1006.0,-8.4,-999.0,yes,yes,no,300234010429060,SVP-BC,unknown,APLIS,North
2011-03-24T04:59:31Z,1300942771,2011,5,0,83.208,83.208,73.034,-146.6406,1006.3,-8.8,-999.0,yes,yes,no,300234010429060,SVP-BC,unknown,APLIS,North
2011-03-24T06:00:00Z,1300946400,2011,6,0,83.25,83.25,73.0358,-146.6332,1006.8,-8.9,-999.0,yes,yes,no,300234010429060,SVP-BC,unknown,APLIS,North
2011-03-24T07:00:28Z,1300950029,2011,7,0,83.292,83.292,73.0372,-146.6274,1007.3,-9.4,-999.0,yes,yes,no,300234010429060,SVP-BC,unknown,APLIS,North
2011-03-24T07:59:31Z,1300953571,2011,8,0,83.333,83.333,73.0388,-146.6228,1007.8,-9.4,-999.0,yes,yes,no,300234010429060,SVP-BC,unknown,APLIS,North
2011-03-24T09:00:00Z,1300957200,2011,9,0,83.375,83.375,73.0402,-146.6188,1008.5,-9.5,-999.0,yes,yes,no,300234010429060,SVP-BC,unknown,APLIS,North
2011-03-24T10:00:28Z,1300960829,2011,10,0,83.417,83.417,73.0418,-146.615,1008.9,-9.8,-999.0,yes,yes,no,300234010429060,SVP-BC,unknown,APLIS,North
2011-03-24T10:59:31Z,1300964371,2011,11,0,83.458,83.458,73.0432,-146.612,1009.1,-10.2,-999.0,yes,yes,no,300234010429060,SVP-BC,unknown,APLIS,North
2011-03-24T12:00:00Z,1300968000,2011,12,0,83.5,83.5,73.045,-146.6098,1009.4,-10.5,-999.0,yes,yes,no,300234010429060,SVP-BC,unknown,APLIS,North
2011-03-24T13:00:28Z,1300971629,2011,13,0,83.542,83.542,73.0464,-146.6082,1009.8,-10.6,-999.0,yes,yes,no,300234010429060,SVP-BC,unknown,APLIS,North
2011-03-24T13:59:31Z,1300975171,2011,14,0,83.583,83.583,73.0478,-146.6078,1010.2,-11.3,-999.0,yes,yes,no,300234010429060,SVP-BC,unknown,APLIS,North
2011-03-24T15:00:00Z,1300978800,2011,15,0,83.625,83.625,73.0488,-146.6082,1010.7,-11.6,-999.0,yes,yes,no,300234010429060,SVP-BC,unknown,APLIS,North
2011-03-24T16:00:28Z,1300982429,2011,16,0,83.667,83.667,73.0492,-146.6094,1010.9,-12.2,-999.0,yes,yes,no,300234010429060,SVP-BC,unknown,APLIS,North
2011-03-24T16:59:31Z,1300985971,2011,17,0,83.708,83.708,73.0496,-146.6112,1011.1,-12.7,-999.0,yes,yes,no,300234010429060,SVP-BC,unknown,APLIS,North
2011-03-24T18:00:00Z,1300989600,2011,18,0,83.75,83.75,73.05,-146.614,1011.1,-12.2,-999.0,yes,yes,no,300234010429060,SVP-BC,unknown,APLIS,North
2011-03-24T19:00:28Z,1300993229,2011,19,0,83.792,83.792,73.0502,-146.6176,1011.5,-11.7,-999.0,yes,yes,no,300234010429060,SVP-BC,unknown,APLIS,North
2011-03-24T19:59:31Z,1300996771,2011,20,0,83.833,83.833,73.0502,-146.6208,1011.4,-11.2,-999.0,yes,yes,no,300234010429060,SVP-BC,unknown,APLIS,North
2011-03-24T22:00:28Z,1301004029,2011,22,0,83.917,83.917,73.05,-146.6286,1011.8,-10.5,-999.0,yes,yes,no,300234010429060,SVP-BC,unknown,APLIS,North
2011-03-24T22:59:31Z,1301007571,2011,23,0,83.958,83.958,73.0498,-146.6338,1011.8,-10.1,-999.0,yes,yes,no,300234010429060,SVP-BC,unknown,APLIS,North
2011-03-25T00:00:00Z,1301011200,2011,0,0,84.0,84.0,73.0496,-146.6402,1011.6,-10.0,-999.0,yes,yes,no,300234010429060,SVP-BC,unknown,APLIS,North
2011-03-25T01:00:28Z,1301014829,2011,1,0,84.042,84.042,73.0492,-146.6476,1011.7,-10.0,-999.0,yes,yes,no,300234010429060,SVP-BC,unknown,APLIS,North
2011-03-25T01:59:31Z,1301018371,2011,2,0,84.083,84.083,73.049,-146.656,1011.5,-10.2,-999.0,yes,yes,no,300234010429060,SVP-BC,unknown,APLIS,North
2011-03-25T03:00:00Z,1301022000,2011,3,0,84.125,84.125,73.0488,-146.6648,1011.4,-10.4,-999.0,yes,yes,no,300234010429060,SVP-BC,unknown,APLIS,North
2011-03-25T04:00:28Z,1301025629,2011,4,0,84.167,84.167,73.0486,-146.6742,1011.3,-10.8,-999.0,yes,yes,no,300234010429060,SVP-BC,unknown,APLIS,North
2011-03-25T04:59:31Z,1301029171,2011,5,0,84.208,84.208,73.0486,-146.6834,1011.0,-11.6,-999.0,yes,yes,no,300234010429060,SVP-BC,unknown,APLIS,North
2011-03-25T06:00:00Z,1301032800,2011,6,0,84.25,84.25,73.0488,-146.6924,1011.1,-12.0,-999.0,yes,yes,no,300234010429060,SVP-BC,unknown,APLIS,North
2011-03-25T07:00:28Z,1301036429,2011,7,0,84.292,84.292,73.0488,-146.7008,1010.9,-12.4,-999.0,yes,yes,no,300234010429060,SVP-BC,unknown,APLIS,North
2011-03-25T07:59:31Z,1301039971,2011,8,0,84.333,84.333,73.049,-146.7084,1010.8,-12.9,-999.0,yes,yes,no,300234010429060,SVP-BC,unknown,APLIS,North
2011-03-25T09:00:00Z,1301043600,2011,9,0,84.375,84.375,73.049,-146.7154,1010.8,-13.4,-999.0,yes,yes,no,300234010429060,SVP-BC,unknown,APLIS,North
2011-03-25T10:00:28Z,1301047229,2011,10,0,84.417,84.417,73.0488,-146.722,1010.8,-14.2,-999.0,yes,yes,no,300234010429060,SVP-BC,unknown,APLIS,North
2011-03-25T10:59:31Z,1301050771,2011,11,0,84.458,84.458,73.0486,-146.7278,1010.8,-14.4,-999.0,yes,yes,no,300234010429060,SVP-BC,unknown,APLIS,North
2011-03-25T12:00:00Z,1301054400,2011,12,0,84.5,84.5,73.0482,-146.7328,1010.6,-14.4,-999.0,yes,yes,no,300234010429060,SVP-BC,unknown,APLIS,North
2011-03-25T13:00:28Z,1301058029,2011,13,0,84.542,84.542,73.0476,-146.7376,1010.4,-14.9,-999.0,yes,yes,no,300234010429060,SVP-BC,unknown,APLIS,North
2011-03-25T13:59:31Z,1301061571,2011,14,0,84.583,84.583,73.0468,-146.7424,1010.3,-15.2,-999.0,yes,yes,no,300234010429060,SVP-BC,unknown,APLIS,North
2011-03-25T15:00:00Z,1301065200,2011,15,0,84.625,84.625,73.046,-146.7484,1010.5,-15.5,-999.0,yes,yes,no,300234010429060,SVP-BC,unknown,APLIS,North
2011-03-25T16:00:28Z,1301068829,2011,16,0,84.667,84.667,73.0452,-146.7544,1010.3,-15.3,-999.0,yes,yes,no,300234010429060,SVP-BC,unknown,APLIS,North
2011-03-25T16:59:31Z,1301072371,2011,17,0,84.708,84.708,73.0444,-146.7606,1010.1,-15.3,-999.0,yes,yes,no,300234010429060,SVP-BC,unknown,APLIS,North
2011-03-25T18:00:00Z,1301076000,2011,18,0,84.75,84.75,73.0436,-146.766,1009.9,-15.2,-999.0,yes,yes,no,300234010429060,SVP-BC,unknown,APLIS,North
2011-03-25T19:00:28Z,1301079629,2011,19,0,84.792,84.792,73.0428,-146.7712,1009.7,-14.6,-999.0,yes,yes,no,300234010429060,SVP-BC,unknown,APLIS,North
2011-03-25T19:59:31Z,1301083171,2011,20,0,84.833,84.833,73.042,-146.7748,1009.8,-14.1,-999.0,yes,yes,no,300234010429060,SVP-BC,unknown,APLIS,North
2011-03-25T21:00:00Z,1301086800,2011,21,0,84.875,84.875,73.041,-146.7786,1009.9,-13.2,-999.0,yes,yes,no,300234010429060,SVP-BC,unknown,APLIS,North
2011-03-25T22:00:28Z,1301090429,2011,22,0,84.917,84.917,73.0398,-146.782,1010.0,-12.1,-999.0,yes,yes,no,300234010429060,SVP-BC,unknown,APLIS,North
2011-03-25T22:59:31Z,1301093971,2011,23,0,84.958,84.958,73.0386,-146.7848,1009.7,-11.9,-999.0,yes,yes,no,300234010429060,SVP-BC,unknown,APLIS,North
2011-03-26T00:00:00Z,1301097600,2011,0,0,85.0,85.0,73.0372,-146.7876,1009.5,-11.2,-999.0,yes,yes,no,300234010429060,SVP-BC,unknown,APLIS,North
2011-03-26T01:00:28Z,1301101229,2011,1,0,85.042,85.042,73.0358,-146.7898,1009.3,-11.3,-999.0,yes,yes,no,300234010429060,SVP-BC,unknown,APLIS,North
2011-03-26T01:59:31Z,1301104771,2011,2,0,85.083,85.083,73.0346,-146.7912,1009.1,-12.1,-999.0,yes,yes,no,300234010429060,SVP-BC,unknown,APLIS,North
2011-03-26T03:00:00Z,1301108400,2011,3,0,85.125,85.125,73.0336,-146.7926,1009.2,-12.1,-999.0,yes,yes,no,300234010429060,SVP-BC,unknown,APLIS,North
2011-03-26T04:00:28Z,1301112029,2011,4,0,85.167,85.167,73.033,-146.7938,1009.2,-13.0,-999.0,yes,yes,no,300234010429060,SVP-BC,unknown,APLIS,North
2011-03-26T04:59:31Z,1301115571,2011,5,0,85.208,85.208,73.0326,-146.7954,1009.1,-14.1,-999.0,yes,yes,no,300234010429060,SVP-BC,unknown,APLIS,North
2011-03-26T06:00:00Z,1301119200,2011,6,0,85.25,85.25,73.0322,-146.797,1009.0,-15.1,-999.0,yes,yes,no,300234010429060,SVP-BC,unknown,APLIS,North
2011-03-26T07:00:28Z,1301122829,2011,7,0,85.292,85.292,73.032,-146.7982,1009.0,-16.3,-999.0,yes,yes,no,300234010429060,SVP-BC,unknown,APLIS,North
2011-03-26T07:59:31Z,1301126371,2011,8,0,85.333,85.333,73.0318,-146.7986,1008.8,-16.2,-999.0,yes,yes,no,300234010429060,SVP-BC,unknown,APLIS,North
2011-03-26T09:00:00Z,1301130000,2011,9,0,85.375,85.375,73.0318,-146.799,1009.0,-16.4,-999.0,yes,yes,no,300234010429060,SVP-BC,unknown,APLIS,North
2011-03-26T10:00:28Z,1301133629,2011,10,0,85.417,85.417,73.0316,-146.7988,1009.1,-17.1,-999.0,yes,yes,no,300234010429060,SVP-BC,unknown,APLIS,North
2011-03-26T10:59:31Z,1301137171,2011,11,0,85.458,85.458,73.0314,-146.798,1008.8,-17.5,-999.0,yes,yes,no,300234010429060,SVP-BC,unknown,APLIS,North
2011-03-26T12:00:00Z,1301140800,2011,12,0,85.5,85.5,73.0312,-146.7976,1008.5,-17.9,-999.0,yes,yes,no,300234010429060,SVP-BC,unknown,APLIS,North
2011-03-26T13:00:28Z,1301144429,2011,13,0,85.542,85.542,73.031,-146.7974,1008.7,-18.0,-999.0,yes,yes,no,300234010429060,SVP-BC,unknown,APLIS,North
2011-03-26T13:59:31Z,1301147971,2011,14,0,85.583,85.583,73.0306,-146.7972,1008.8,-18.2,-999.0,yes,yes,no,300234010429060,SVP-BC,unknown,APLIS,North
2011-03-26T15:00:00Z,1301151600,2011,15,0,85.625,85.625,73.0304,-146.7978,1008.8,-18.0,-999.0,yes,yes,no,300234010429060,SVP-BC,unknown,APLIS,North
2011-03-26T16:00:28Z,1301155229,2011,16,0,85.667,85.667,73.0302,-146.7984,1008.6,-18.2,-999.0,yes,yes,no,300234010429060,SVP-BC,unknown,APLIS,North
2011-03-26T16:59:31Z,1301158771,2011,17,0,85.708,85.708,73.03,-146.7994,1008.6,-18.4,-999.0,yes,yes,no,300234010429060,SVP-BC,unknown,APLIS,North
2011-03-26T18:00:00Z,1301162400,2011,18,0,85.75,85.75,73.0298,-146.8006,1008.6,-17.5,-999.0,yes,yes,no,300234010429060,SVP-BC,unknown,APLIS,North
2011-03-26T19:00:28Z,1301166029,2011,19,0,85.792,85.792,73.0298,-146.8018,1008.7,-17.1,-999.0,yes,yes,no,300234010429060,SVP-BC,unknown,APLIS,North
2011-03-26T19:59:31Z,1301169571,2011,20,0,85.833,85.833,73.0296,-146.803,1008.7,-16.3,-999.0,yes,yes,no,300234010429060,SVP-BC,unknown,APLIS,North
2011-03-26T21:00:00Z,1301173200,2011,21,0,85.875,85.875,73.0294,-146.804,1008.8,-15.2,-999.0,yes,yes,no,300234010429060,SVP-BC,unknown,APLIS,North
2011-03-26T22:00:28Z,1301176829,2011,22,0,85.917,85.917,73.0292,-146.8044,1009.2,-14.3,-999.0,yes,yes,no,300234010429060,SVP-BC,unknown,APLIS,North
2011-03-26T22:59:31Z,1301180371,2011,23,0,85.958,85.958,73.029,-146.8044,1009.2,-14.0,-999.0,yes,yes,no,300234010429060,SVP-BC,unknown,APLIS,North
2011-03-27T00:00:00Z,1301184000,2011,0,0,86.0,86.0,73.0288,-146.8042,1009.3,-13.7,-999.0,yes,yes,no,300234010429060,SVP-BC,unknown,APLIS,North
2011-03-27T01:00:28Z,1301187629,2011,1,0,86.042,86.042,73.0286,-146.804,1009.2,-13.3,-999.0,yes,yes,no,300234010429060,SVP-BC,unknown,APLIS,North
2011-03-27T01:59:31Z,1301191171,2011,2,0,86.083,86.083,73.0286,-146.804,1009.3,-13.6,-999.0,yes,yes,no,300234010429060,SVP-BC,unknown,APLIS,North
2011-03-27T03:00:00Z,1301194800,2011,3,0,86.125,86.125,73.0286,-146.804,1009.4,-13.8,-999.0,yes,yes,no,300234010429060,SVP-BC,unknown,APLIS,North
2011-03-27T04:00:28Z,1301198429,2011,4,0,86.167,86.167,73.0286,-146.8038,1009.4,-14.5,-999.0,yes,yes,no,300234010429060,SVP-BC,unknown,APLIS,North
2011-03-27T04:59:31Z,1301201971,2011,5,0,86.208,86.208,73.0288,-146.8036,1009.8,-15.0,-999.0,yes,yes,no,300234010429060,SVP-BC,unknown,APLIS,North
2011-03-27T06:00:00Z,1301205600,2011,6,0,86.25,86.25,73.0288,-146.8034,1010.0,-15.1,-999.0,yes,yes,no,300234010429060,SVP-BC,unknown,APLIS,North
2011-03-27T07:00:28Z,1301209229,2011,7,0,86.292,86.292,73.029,-146.8032,1010.0,-14.9,-999.0,yes,yes,no,300234010429060,SVP-BC,unknown,APLIS,North
2011-03-27T07:59:31Z,1301212771,2011,8,0,86.333,86.333,73.0292,-146.8028,1010.2,-14.9,-999.0,yes,yes,no,300234010429060,SVP-BC,unknown,APLIS,North
2011-03-27T09:00:00Z,1301216400,2011,9,0,86.375,86.375,73.0292,-146.8018,1010.4,-15.0,-999.0,yes,yes,no,300234010429060,SVP-BC,unknown,APLIS,North
2011-03-27T10:00:28Z,1301220029,2011,10,0,86.417,86.417,73.0294,-146.801,1010.9,-15.0,-999.0,yes,yes,no,300234010429060,SVP-BC,unknown,APLIS,North
2011-03-27T10:59:31Z,1301223571,2011,11,0,86.458,86.458,73.0296,-146.8006,1011.0,-15.0,-999.0,yes,yes,no,300234010429060,SVP-BC,unknown,APLIS,North
2011-03-27T12:00:00Z,1301227200,2011,12,0,86.5,86.5,73.0298,-146.7998,1011.0,-15.0,-999.0,yes,yes,no,300234010429060,SVP-BC,unknown,APLIS,North
2011-03-27T13:00:28Z,1301230829,2011,13,0,86.542,86.542,73.03,-146.7988,1011.1,-14.9,-999.0,yes,yes,no,300234010429060,SVP-BC,unknown,APLIS,North
2011-03-27T13:59:31Z,1301234371,2011,14,0,86.583,86.583,73.0302,-146.7982,1011.2,-14.8,-999.0,yes,yes,no,300234010429060,SVP-BC,unknown,APLIS,North
2011-03-27T15:00:00Z,1301238000,2011,15,0,86.625,86.625,73.0306,-146.7982,1011.3,-14.6,-999.0,yes,yes,no,300234010429060,SVP-BC,unknown,APLIS,North
2011-03-27T16:00:28Z,1301241629,2011,16,0,86.667,86.667,73.0312,-146.7992,1011.7,-14.4,-999.0,yes,yes,no,300234010429060,SVP-BC,unknown,APLIS,North
2011-03-27T16:59:31Z,1301245171,2011,17,0,86.708,86.708,73.0322,-146.801,1011.9,-14.4,-999.0,yes,yes,no,300234010429060,SVP-BC,unknown,APLIS,North
2011-03-27T18:00:00Z,1301248800,2011,18,0,86.75,86.75,73.0334,-146.8026,1011.9,-14.4,-999.0,yes,yes,no,300234010429060,SVP-BC,unknown,APLIS,North
2011-03-27T19:00:28Z,1301252429,2011,19,0,86.792,86.792,73.0348,-146.8044,1012.0,-14.3,-999.0,yes,yes,no,300234010429060,SVP-BC,unknown,APLIS,North
2011-03-27T19:59:31Z,1301255971,2011,20,0,86.833,86.833,73.036,-146.806,1012.3,-14.1,-999.0,yes,yes,no,300234010429060,SVP-BC,unknown,APLIS,North
2011-03-27T21:00:00Z,1301259600,2011,21,0,86.875,86.875,73.0372,-146.8074,1012.4,-13.8,-999.0,yes,yes,no,300234010429060,SVP-BC,unknown,APLIS,North
2011-03-27T22:00:28Z,1301263229,2011,22,0,86.917,86.917,73.0384,-146.8088,1012.3,-13.7,-999.0,yes,yes,no,300234010429060,SVP-BC,unknown,APLIS,North
2011-03-27T22:59:31Z,1301266771,2011,23,0,86.958,86.958,73.0394,-146.8102,1012.1,-13.7,-999.0,yes,yes,no,300234010429060,SVP-BC,unknown,APLIS,North
2011-03-28T00:00:00Z,1301270400,2011,0,0,87.0,87.0,73.0404,-146.8124,1012.3,-13.5,-999.0,yes,yes,no,300234010429060,SVP-BC,unknown,APLIS,North
2011-03-28T01:00:28Z,1301274029,2011,1,0,87.042,87.042,73.0414,-146.8152,1012.5,-13.5,-999.0,yes,yes,no,300234010429060,SVP-BC,unknown,APLIS,North
2011-03-28T01:59:31Z,1301277571,2011,2,0,87.083,87.083,73.0424,-146.8178,1012.1,-13.8,-999.0,yes,yes,no,300234010429060,SVP-BC,unknown,APLIS,North
2011-03-28T03:00:00Z,1301281200,2011,3,0,87.125,87.125,73.0434,-146.8208,1012.1,-13.8,-999.0,yes,yes,no,300234010429060,SVP-BC,unknown,APLIS,North
2011-03-28T04:00:28Z,1301284829,2011,4,0,87.167,87.167,73.0442,-146.8236,1012.5,-14.0,-999.0,yes,yes,no,300234010429060,SVP-BC,unknown,APLIS,North
2011-03-28T04:59:31Z,1301288371,2011,5,0,87.208,87.208,73.045,-146.8266,1012.5,-14.1,-999.0,yes,yes,no,300234010429060,SVP-BC,unknown,APLIS,North
2011-03-28T06:00:00Z,1301292000,2011,6,0,87.25,87.25,73.046,-146.8304,1012.6,-14.3,-999.0,yes,yes,no,300234010429060,SVP-BC,unknown,APLIS,North
2011-03-28T07:00:28Z,1301295629,2011,7,0,87.292,87.292,73.0472,-146.8346,1012.2,-14.3,-999.0,yes,yes,no,300234010429060,SVP-BC,unknown,APLIS,North
2011-03-28T07:59:31Z,1301299171,2011,8,0,87.333,87.333,73.0482,-146.8386,1012.4,-14.3,-999.0,yes,yes,no,300234010429060,SVP-BC,unknown,APLIS,North
2011-03-28T09:00:00Z,1301302800,2011,9,0,87.375,87.375,73.0492,-146.8426,1012.6,-14.1,-999.0,yes,yes,no,300234010429060,SVP-BC,unknown,APLIS,North
2011-03-28T10:00:28Z,1301306429,2011,10,0,87.417,87.417,73.05,-146.8462,1012.8,-14.1,-999.0,yes,yes,no,300234010429060,SVP-BC,unknown,APLIS,North
2011-03-28T10:59:31Z,1301309971,2011,11,0,87.458,87.458,73.0508,-146.8498,1012.9,-13.9,-999.0,yes,yes,no,300234010429060,SVP-BC,unknown,APLIS,North
2011-03-28T12:00:00Z,1301313600,2011,12,0,87.5,87.5,73.0516,-146.8526,1012.5,-13.9,-999.0,yes,yes,no,300234010429060,SVP-BC,unknown,APLIS,North
2011-03-28T13:00:28Z,1301317229,2011,13,0,87.542,87.542,73.0524,-146.856,1011.9,-13.9,-999.0,yes,yes,no,300234010429060,SVP-BC,unknown,APLIS,North
2011-03-28T13:59:31Z,1301320771,2011,14,0,87.583,87.583,73.0534,-146.8608,1011.9,-13.9,-999.0,yes,yes,no,300234010429060,SVP-BC,unknown,APLIS,North
2011-03-28T15:00:00Z,1301324400,2011,15,0,87.625,87.625,73.0544,-146.8668,1012.0,-13.7,-999.0,yes,yes,no,300234010429060,SVP-BC,unknown,APLIS,North
2011-03-28T16:00:28Z,1301328029,2011,16,0,87.667,87.667,73.0556,-146.8724,1012.3,-13.6,-999.0,yes,yes,no,300234010429060,SVP-BC,unknown,APLIS,North
2011-03-28T16:59:31Z,1301331571,2011,17,0,87.708,87.708,73.0568,-146.8766,1012.2,-13.4,-999.0,yes,yes,no,300234010429060,SVP-BC,unknown,APLIS,North
2011-03-28T18:00:00Z,1301335200,2011,18,0,87.75,87.75,73.0576,-146.8798,1012.0,-13.2,-999.0,yes,yes,no,300234010429060,SVP-BC,unknown,APLIS,North
2011-03-28T19:00:28Z,1301338829,2011,19,0,87.792,87.792,73.0586,-146.8836,1011.7,-12.6,-999.0,yes,yes,no,300234010429060,SVP-BC,unknown,APLIS,North
2011-03-28T19:59:31Z,1301342371,2011,20,0,87.833,87.833,73.0598,-146.887,1011.6,-12.2,-999.0,yes,yes,no,300234010429060,SVP-BC,unknown,APLIS,North
2011-03-28T21:00:00Z,1301346000,2011,21,0,87.875,87.875,73.061,-146.8902,1011.7,-11.9,-999.0,yes,yes,no,300234010429060,SVP-BC,unknown,APLIS,North
2011-03-28T22:00:28Z,1301349629,2011,22,0,87.917,87.917,73.062,-146.8932,1011.6,-11.3,-999.0,yes,yes,no,300234010429060,SVP-BC,unknown,APLIS,North
2011-03-28T22:59:31Z,1301353171,2011,23,0,87.958,87.958,73.0626,-146.896,1011.1,-10.9,-999.0,yes,yes,no,300234010429060,SVP-BC,unknown,APLIS,North
2011-03-29T00:00:00Z,1301356800,2011,0,0,88.0,88.0,73.063,-146.8992,1011.0,-10.6,-999.0,yes,yes,no,300234010429060,SVP-BC,unknown,APLIS,North
2011-03-29T01:00:28Z,1301360429,2011,1,0,88.042,88.042,73.063,-146.9012,1010.7,-10.3,-999.0,yes,yes,no,300234010429060,SVP-BC,unknown,APLIS,North
2011-03-29T01:59:31Z,1301363971,2011,2,0,88.083,88.083,73.0626,-146.9028,1010.5,-10.2,-999.0,yes,yes,no,300234010429060,SVP-BC,unknown,APLIS,North
2011-03-29T03:00:00Z,1301367600,2011,3,0,88.125,88.125,73.0622,-146.9042,1010.4,-10.4,-999.0,yes,yes,no,300234010429060,SVP-BC,unknown,APLIS,North
2011-03-29T04:00:28Z,1301371229,2011,4,0,88.167,88.167,73.0618,-146.906,1010.1,-10.4,-999.0,yes,yes,no,300234010429060,SVP-BC,unknown,APLIS,North
2011-03-29T04:59:31Z,1301374771,2011,5,0,88.208,88.208,73.0612,-146.9076,1009.7,-10.7,-999.0,yes,yes,no,300234010429060,SVP-BC,unknown,APLIS,North
2011-03-29T06:00:00Z,1301378400,2011,6,0,88.25,88.25,73.0608,-146.9088,1009.5,-11.7,-999.0,yes,yes,no,300234010429060,SVP-BC,unknown,APLIS,North
2011-03-29T07:00:28Z,1301382029,2011,7,0,88.292,88.292,73.0602,-146.9094,1009.2,-13.0,-999.0,yes,yes,no,300234010429060,SVP-BC,unknown,APLIS,North
2011-03-29T07:59:31Z,1301385571,2011,8,0,88.333,88.333,73.0598,-146.9098,1009.3,-14.1,-999.0,yes,yes,no,300234010429060,SVP-BC,unknown,APLIS,North
2011-03-29T09:00:00Z,1301389200,2011,9,0,88.375,88.375,73.0594,-146.9096,1009.3,-13.7,-999.0,yes,yes,no,300234010429060,SVP-BC,unknown,APLIS,North
2011-03-29T10:00:28Z,1301392829,2011,10,0,88.417,88.417,73.0588,-146.9092,1009.2,-13.3,-999.0,yes,yes,no,300234010429060,SVP-BC,unknown,APLIS,North
2011-03-29T10:59:31Z,1301396371,2011,11,0,88.458,88.458,73.0584,-146.9082,1009.3,-13.6,-999.0,yes,yes,no,300234010429060,SVP-BC,unknown,APLIS,North
2011-03-29T12:00:00Z,1301400000,2011,12,0,88.5,88.5,73.058,-146.9066,1009.3,-14.0,-999.0,yes,yes,no,300234010429060,SVP-BC,unknown,APLIS,North
2011-03-29T13:00:28Z,1301403629,2011,13,0,88.542,88.542,73.0574,-146.904,1009.2,-14.6,-999.0,yes,yes,no,300234010429060,SVP-BC,unknown,APLIS,North
2011-03-29T13:59:31Z,1301407171,2011,14,0,88.583,88.583,73.0566,-146.901,1009.2,-15.1,-999.0,yes,yes,no,300234010429060,SVP-BC,unknown,APLIS,North
2011-03-29T15:00:00Z,1301410800,2011,15,0,88.625,88.625,73.056,-146.8976,1009.3,-16.2,-999.0,yes,yes,no,300234010429060,SVP-BC,unknown,APLIS,North
2011-03-29T16:00:28Z,1301414429,2011,16,0,88.667,88.667,73.0554,-146.895,1008.6,-16.7,-999.0,yes,yes,no,300234010429060,SVP-BC,unknown,APLIS,North
2011-03-29T16:59:31Z,1301417971,2011,17,0,88.708,88.708,73.055,-146.8944,1009.0,-17.4,-999.0,yes,yes,no,300234010429060,SVP-BC,unknown,APLIS,North